TDRS 3

Last updated on Sun Jun 21 2026 00:02:59 GMT+0000 (Coordinated Universal Time)

1 19548U 88091B 26171.38227711 -.00000309 00000+0 00000+0 0 9992 2 19548 12.5990 340.9850 0038300 356.4263 19.9856 1.00272364125424
UTC large
Height (km)
Speed (km/s)
/
Latitude / Longitude
Inclination (degrees)
Orbital Period (minutes)
Azimuth
Elevation
Range (km)
Doppler Factor

Next 0 passes for location: London (51.5072 / 0.1276)

No passes found over London.
TDRS 3